map of LAO home
Great Circle Mapper logo
LAO - Airport
Location
City:  Laoag, Luzon Island, Philippines
Name:Laoag International Airport
ICAO / IATA:RPLI / LAO

Details
Type:Airport (Aerodrome, Airfield)
Use:Public/Civil, International (customs port of entry)
Latitude:1810'41"N (18.178092)
Longitude:12031'53"E (120.531522)
Datum:WGS 1984
Elevation:25 ft (8 m)
Runways:1
Longest:9120 × 148 ft (2780 × 45 m), paved

Time
Time Zone:UTC+8
Local Time:

Weather
METAR:RPLI 222300Z 09004KT 9999 FEW018CB FEW019 24/23 Q1011 NOSIG RMK A2985 CB E AND SW
TAF:RPLI 222300Z 2300/2324 07008KT 9999 FEW019 SCT290
TEMPO 2306/ 2312 11006KT FEW019 SCT100 BKN290

Related Locations
Nearby:
Farthest:RBO: 12429 mi / 20003 km
Robore, BO

Find:

   beyond  
but within

Other Information
Maps:
NOTAMs:
Links:
Sources:

  
flag of Philippines   

Sectional Chart

Flight Planning
at skyvector.com

Satellite Image

Google Maps Satellite View

 

Copyright © 2004-2014 Karl L. Swartz. All rights reserved.
The Great Circle Mapper name and logo are trademarks of the Great Circle Mapper.
All other trademarks mentioned herein belong to their respective owners.
Please see credits for attibutions and further copyright information.

  Follow gcmap on Facebook Follow gcmap on Twitter

hCard Microformat

Geo Microformat